Kalamazoo, MI

5:05 PM EDT on May 29, 2017 (GMT -0400)
Kalamazoo-Battle Creek International

Weather History for KAZO - June, 2012

Change the Weather History Date:

Thursday, June 21, 2012

  Actual Average Record
Temperature  
Mean Temperature 75 °F 70 °F  
Max Temperature 87 °F 81 °F 100 °F (1988)
Min Temperature 62 °F 59 °F 43 °F (1963)
Degree Days  
Heating Degree Days 0 1  
Month to date heating degree days 44  
Since 1 June heating degree days 44  
Since 1 July heating degree days 6412  
Cooling Degree Days 10 6  
Month to date cooling degree days 86  
Year to date cooling degree days 127  
Since 1 June cooling degree days 86  
Growing Degree Days 25 (Base 50)    
Moisture  
Dew Point 64 °F    
Average Humidity 72    
Maximum Humidity 93    
Minimum Humidity 49    
Precipitation  
Precipitation 0.12 in 0.11 in 0.73 in (1978)
Month to date precipitation 0.81 2.62  
Year to date precipitation 15.06  
Sea Level Pressure  
Sea Level Pressure 29.92 in    
Wind  
Wind Speed 9 mph (WSW)    
Max Wind Speed 21 mph    
Max Gust Speed 29 mph    
Visibility 9 miles    
Events Rain    
T = Trace of Precipitation, MM = Missing Value Source: NWS Daily Summary

Daily Weather History Graph

Daily Weather History Graph

Search for Another Location

Airport or City:

Trip Planner

Search our weather history database for the weather conditions in past years. The results will help you decide how hot, cold, wet, or windy it might be!

Date:

Astronomy

Jun. 21, 2012 Rise Set
Actual Time 6:06 AM EDT 9:22 PM EDT
Civil Twilight 5:31 AM EDT 9:56 PM EDT
Nautical Twilight 4:46 AM EDT 10:41 PM EDT
Astronomical Twilight 3:51 AM EDT 11:36 PM EDT
Moon 8:05 AM EDT (6/21) 10:42 PM EDT (6/21)
Length of Visible Light 16h 25m
Length of Day
15h 16m
Waxing Crescent, 4% of the Moon is Illuminated
Jun 21
Waxing Crescent
Jun 26
First Quarter
Jul 3
Full
Jul 10
Last Quarter
Jul 19
New

Hourly Weather History & Observations

Time (EDT) Temp. Heat Index Dew Point Humidity Pressure Visibility Wind Dir Wind Speed Gust Speed Precip Events Conditions
12:53 AM 73.0 °F - 63.0 °F 71% 29.96 in 10.0 mi South 4.6 mph - N/A   Clear
1:53 AM 73.9 °F - 62.1 °F 66% 29.94 in 10.0 mi South 9.2 mph - N/A   Clear
2:53 AM 73.0 °F - 62.1 °F 68% 29.94 in 10.0 mi South 8.1 mph - N/A   Clear
3:53 AM 73.9 °F - 62.1 °F 66% 29.91 in 10.0 mi South 9.2 mph - N/A   Partly Cloudy
4:53 AM 75.0 °F - 62.1 °F 64% 29.91 in 10.0 mi SSW 11.5 mph - N/A   Clear
5:53 AM 75.9 °F - 62.1 °F 62% 29.91 in 10.0 mi SSW 10.4 mph - N/A   Clear
6:53 AM 77.0 °F - 62.1 °F 60% 29.91 in 10.0 mi SW 10.4 mph - N/A   Scattered Clouds
7:53 AM 78.1 °F - 62.1 °F 58% 29.90 in 10.0 mi SSW 12.7 mph - N/A   Clear
8:53 AM 82.0 °F 83.1 °F 63.0 °F 52% 29.89 in 10.0 mi SSW 15.0 mph 20.7 mph N/A   Clear
9:53 AM 84.9 °F 86.1 °F 64.0 °F 49% 29.89 in 10.0 mi SSW 17.3 mph 21.9 mph N/A   Mostly Cloudy
10:53 AM 84.9 °F 86.6 °F 64.9 °F 51% 29.89 in 10.0 mi WSW 12.7 mph - N/A   Scattered Clouds
11:53 AM 82.9 °F 84.6 °F 64.9 °F 54% 29.90 in 10.0 mi West 12.7 mph 27.6 mph N/A   Mostly Cloudy
12:53 PM 86.0 °F 87.6 °F 64.9 °F 49% 29.90 in 10.0 mi West 15.0 mph 19.6 mph N/A   Partly Cloudy
1:53 PM 82.0 °F 83.8 °F 64.9 °F 56% 29.91 in 10.0 mi West 13.8 mph 20.7 mph N/A   Overcast
2:53 PM 75.9 °F - 68.0 °F 76% 29.92 in 7.0 mi WNW 12.7 mph - 0.00 in Rain Light Rain
3:53 PM 72.0 °F - 66.9 °F 84% 29.92 in 10.0 mi NW 8.1 mph - 0.00 in Rain Light Rain
4:11 PM 69.8 °F - 64.4 °F 83% 29.94 in 9.0 mi NNW 15.0 mph - 0.01 in Rain Light Rain
4:21 PM 68.0 °F - 64.4 °F 88% 29.95 in 5.0 mi NNW 10.4 mph - 0.03 in Rain Rain
4:53 PM 66.9 °F - 63.0 °F 87% 29.92 in 6.0 mi NW 5.8 mph - 0.10 in Rain Light Rain
5:53 PM 68.0 °F - 64.0 °F 87% 29.91 in 10.0 mi NW 5.8 mph - 0.02 in   Mostly Cloudy
6:53 PM 69.1 °F - 64.9 °F 87% 29.91 in 10.0 mi NW 6.9 mph - N/A   Mostly Cloudy
7:53 PM 70.0 °F - 64.0 °F 81% 29.92 in 10.0 mi NW 5.8 mph - N/A   Clear
8:53 PM 68.0 °F - 64.0 °F 87% 29.92 in 10.0 mi SSW 4.6 mph - N/A   Clear
9:53 PM 66.0 °F - 63.0 °F 90% 29.93 in 10.0 mi SSW 4.6 mph - N/A   Clear
10:53 PM 64.9 °F - 63.0 °F 93% 29.94 in 10.0 mi Calm Calm - N/A   Clear
11:53 PM 64.9 °F - 63.0 °F 93% 29.95 in 7.0 mi Calm Calm - N/A   Clear